Location: Unspecified
(44.4377°N, 88.0525°W)
Time: 12:53:45
(UTC-05:00)

Cosmos 1674 - Visible Passes

Search period start: 29 July 2016 00:00
Search period end: 08 August 2016 00:00
Orbit: 501 x 525 km, 82.5° (Epoch: 28 July)

Date Brightness Start Highest point End Pass type
(mag) Time Alt. Az. Time Alt. Az. Time Alt. Az.
29 Jul 5.7 03:11:07 10° NE 03:12:47 12° ENE 03:14:25 10° E visible
29 Jul 2.9 04:45:06 10° NNW 04:48:46 48° W 04:52:22 10° SSW visible
30 Jul 6.0 02:56:31 10° ENE 02:56:50 10° ENE 02:57:08 10° ENE visible
30 Jul 2.6 04:29:12 10° NNW 04:32:56 61° W 04:36:37 10° S visible
31 Jul 2.5 04:13:18 10° N 04:17:05 79° W 04:20:49 10° S visible
01 Aug 2.6 03:57:27 10° N 04:01:15 82° E 04:04:47 11° S visible
02 Aug 3.0 03:41:37 10° N 03:45:22 65° E 03:48:15 16° SSE visible
03 Aug 3.4 03:25:49 10° N 03:29:30 51° E 03:31:48 20° SSE visible
03 Aug 4.8 05:03:35 10° WNW 05:04:38 11° W 05:05:42 10° W visible
04 Aug 3.8 03:10:02 10° N 03:13:37 40° ENE 03:15:24 24° SE visible
04 Aug 4.6 04:46:57 10° NW 04:48:52 14° W 04:50:19 11° WSW visible
05 Aug 4.2 02:54:17 10° N 02:57:43 32° ENE 02:59:04 25° ESE visible
05 Aug 4.3 04:30:39 10° NW 04:33:05 17° W 04:33:58 16° WSW visible
06 Aug 4.4 02:38:34 10° NNE 02:41:48 26° ENE 02:42:46 23° E visible
06 Aug 4.1 04:14:28 10° NW 04:17:18 20° W 04:17:42 20° W visible
07 Aug 4.7 02:22:54 10° NNE 02:25:53 22° ENE 02:26:32 21° E visible
07 Aug 3.8 03:58:23 10° NW 04:01:27 25° W 04:01:27 25° W visible
